Location: Unspecified
(40.8819°N, 0.0000°E)
Time: 20:09:44
(UTC+00:00)

BUGSAT 1 - Pass Details

Date: 27 April 2024
Orbit: 512 x 554 km, 98.1° (Epoch: 17 June)

Event Time Altitude Azimuth Distance (km) Brightness Sun altitude
Rises 18:34:00 0° 129° (SE) 2,670 ? 2.5°
Reaches altitude 10° 18:36:35 10° 110° (ESE) 1,796 ? 2.1°
Drops below altitude 10° 18:41:58 10° 22° (NNE) 1,830 ? 1.1°
Enters shadow 19:39:55 -63° 169° (S) 11,950 ? -9.0°
Maximum altitude 20:13:30 33° 263° (W) 933 ? -14.4°
